DW5274 Weather Reports


Display with metric or nautical units.
time (UTC)temp
F
wind
direction
speed
MPH
gust
MPH
rain 1hr
in
rain 24hr
in
rain mn
in
humidity
%
barometer
mb
20260904121549 46 337 0.0 0.0 0.00 0.00 0.02 93 1011.9
20260904120039 46 337 0.0 0.0 0.00 0.00 0.02 93 1011.9
20260904114521 46 337 0.0 0.0 0.00 0.00 0.02 93 1011.5
20260904113020 46 337 0.0 0.0 0.00 0.00 0.02 93 1011.7
20260904111601 46 337 0.0 0.0 0.00 0.00 0.02 93 1011.4
20260904104542 47 337 0.0 0.0 0.00 0.00 0.02 93 1011.4
20260904103041 47 337 0.0 0.0 0.00 0.00 0.02 93 1011.4
20260904101521 47 337 0.0 0.0 0.00 0.00 0.02 93 1011.0
20260904100022 47 337 0.0 0.0 0.00 0.00 0.02 93 1010.8
20260904094501 47 338 0.0 0.0 0.00 0.00 0.02 93 1010.6
20260904093002 47 338 0.0 0.0 0.00 0.00 0.02 93 1010.4
20260904091542 47 340 0.0 0.0 0.00 0.00 0.01 92 1010.4
20260904090052 47 342 0.0 0.0 0.00 0.00 0.00 92 1010.2
20260904084524 47 344 0.0 0.0 0.00 0.00 0.00 92 1009.9
20260904083039 47 344 0.0 0.0 0.00 0.00 0.00 92 1010.2
20260904081506 47 344 0.0 0.0 0.00 0.00 0.00 92 1010.2
20260904080006 47 344 0.0 0.0 0.00 0.00 0.00 92 1010.2
20260904074549 47 344 0.0 0.0 0.00 0.00 0.00 91 1010.4
20260904073050 46 344 0.0 0.0 0.00 0.00 0.00 91 1010.4
20260904071526 46 344 0.0 0.0 0.00 0.00 0.00 91 1010.3
20260904070050 46 344 0.0 0.0 0.00 0.00 0.00 91 1010.0
20260904064507 46 344 0.0 0.0 0.00 0.00 0.00 90 1010.3
20260904063011 46 346 0.0 0.0 0.00 0.00 0.00 90 1010.3
20260904061547 46 346 0.0 0.0 0.00 0.00 0.00 89 1010.6
20260904060045 47 360 0.0 0.0 0.00 0.00 0.00 89 1010.2
20260904054528 47 337 0.0 0.0 0.00 0.00 0.00 88 1010.3
20260904053042 47 345 0.0 0.0 0.00 0.00 0.00 88 1009.9
20260904051515 47 335 0.0 0.0 0.00 0.00 0.00 87 1009.9
20260904050004 48 326 0.0 0.0 0.00 0.00 0.00 86 1010.1
20260904044545 48 336 0.0 0.0 0.00 0.00 0.00 84 1010.2
20260904043052 48 355 4.0 0.0 0.00 0.00 0.00 81 1010.0
20260904041523 49 350 5.0 0.0 0.00 0.00 0.00 80 1009.8
20260904040021 49 313 5.0 0.0 0.00 0.00 0.00 79 1009.7
20260904034600 49 343 7.0 0.0 0.00 0.00 0.00 77 1009.1
20260904034502 49 333 7.0 0.0 0.00 0.00 0.00 77 1009.1
20260904033057 50 310 7.0 0.0 0.00 0.00 0.00 76 1008.4
20260904031547 52 338 5.0 0.0 0.00 0.00 0.00 73 1007.6
20260904030032 53 342 5.0 0.0 0.00 0.00 0.00 74 1007.3
20260904024510 55 20 6.0 0.0 0.00 0.00 0.00 76 1006.3
20260904023008 58 360 5.0 0.0 0.00 0.00 0.00 75 1005.3
20260904021550 60 321 3.0 0.0 0.00 0.00 0.00 77 1004.9
20260904020051 61 318 2.0 0.0 0.00 0.00 0.00 74 1004.6
20260904014532 62 306 3.0 0.0 0.00 0.00 0.00 70 1004.3
20260904013038 64 289 2.0 0.0 0.00 0.00 0.00 69 1004.1
20260904011513 65 286 2.0 0.0 0.00 0.00 0.00 68 1004.0
20260904010013 66 286 0.0 0.0 0.00 0.00 0.00 69 1004.0
20260904004555 66 286 2.0 0.0 0.00 0.00 0.00 66 1003.9
20260904003054 67 280 0.0 0.0 0.00 0.00 0.00 66 1004.0
20260904001535 68 280 0.0 0.0 0.00 0.00 0.00 64 1004.1
20260904000036 69 280 1.0 0.0 0.00 0.00 0.00 64 1004.1
20260903234517 69 278 0.0 0.0 0.00 0.00 0.00 62 1004.2
20260903233015 69 276 0.0 0.0 0.00 0.00 0.00 61 1004.4
20260903231615 70 276 0.0 0.0 0.00 0.00 0.00 60 1004.6
20260903230059 70 274 0.0 0.0 0.00 0.00 0.00 59 1004.6
20260903224556 71 270 2.0 0.0 0.00 0.00 0.00 55 1004.9
20260903223042 72 236 0.0 0.0 0.00 0.00 0.00 49 1005.1
20260903221542 72 236 0.0 0.0 0.00 0.00 0.00 50 1005.0
20260903220040 72 236 0.0 0.0 0.00 0.00 0.00 47 1005.2
20260903214544 73 236 1.0 0.0 0.00 0.00 0.00 48 1005.5
20260903213042 74 225 1.0 0.0 0.00 0.00 0.00 47 1005.8
20260903211535 74 214 1.0 0.0 0.00 0.00 0.00 43 1006.0
20260903210032 74 208 0.0 0.0 0.00 0.00 0.00 39 1006.2
20260903204529 73 203 0.0 0.0 0.00 0.00 0.00 40 1006.4
20260903203025 73 203 1.0 0.0 0.00 0.00 0.00 50 1006.7
20260903201531 73 202 2.0 0.0 0.00 0.00 0.00 41 1007.1
20260903200006 73 199 1.0 0.0 0.00 0.00 0.00 40 1007.3
20260903194601 72 202 0.0 0.0 0.00 0.00 0.00 42 1007.5
20260903193039 72 202 1.0 0.0 0.00 0.00 0.00 43 1007.8
20260903191536 70 201 2.0 0.0 0.00 0.00 0.00 46 1008.1
20260903190016 69 201 3.0 0.0 0.00 0.00 0.00 51 1008.5
20260903184514 68 198 2.0 0.0 0.00 0.00 0.00 54 1008.8
20260903183053 67 194 2.0 0.0 0.00 0.00 0.00 59 1009.0
20260903181553 66 190 0.0 0.0 0.00 0.00 0.00 60 1009.2
20260903180040 67 183 0.0 0.0 0.00 0.00 0.00 58 1009.2
20260903174532 66 178 0.0 0.0 0.00 0.00 0.00 61 1009.3
20260903173011 65 174 0.0 0.0 0.00 0.00 0.00 62 1009.3
20260903171511 64 173 0.0 0.0 0.00 0.00 0.00 64 1009.5
20260903164553 63 174 0.0 0.0 0.00 0.00 0.00 67 1009.7
20260903163035 62 175 0.0 0.0 0.00 0.00 0.00 74 1009.7
20260903161536 61 178 0.0 0.0 0.00 0.00 0.00 78 1009.6
20260903160019 60 178 0.0 0.0 0.00 0.00 0.00 81 1009.6
20260903154516 59 178 0.0 0.0 0.00 0.00 0.00 83 1009.8
20260903153112 58 178 0.0 0.0 0.00 0.00 0.00 83 1009.9
20260903151610 58 178 0.0 0.0 0.00 0.00 0.00 84 1010.0
20260903150043 57 154 0.0 0.0 0.00 0.00 0.00 85 1009.9
20260903144542 57 190 0.0 0.0 0.00 0.00 0.00 86 1009.9
20260903143020 57 190 0.0 0.0 0.00 0.00 0.00 87 1009.6
20260903141531 56 189 0.0 0.0 0.00 0.00 0.00 87 1009.6
20260903140005 56 190 0.0 0.0 0.00 0.00 0.00 87 1009.5
20260903134502 56 189 0.0 0.0 0.00 0.00 0.00 86 1009.4
20260903133043 56 190 0.0 0.0 0.00 0.00 0.00 85 1009.5
20260903131543 56 189 0.0 0.0 0.00 0.00 0.00 84 1009.2
20260903130024 56 117 0.0 0.0 0.00 0.00 0.00 85 1008.8
20260903124529 56 117 0.0 0.0 0.00 0.00 0.00 86 1008.5
20260903123006 56 116 0.0 0.0 0.00 0.00 0.00 87 1008.6